Location: ?????? ??????
(44.3742°N, 135.2221°E)
Time: 01:31:40
(UTC+00:00)

Okean 1 - Pass Details

Date: 19 May 2025
Orbit: 477 x 499 km, 82.5° (Epoch: 13 June)

Event Time Altitude Azimuth Distance (km) Brightness Sun altitude
Exits shadow 12:14:00 24° 96° (E) 1,065 4.4 -15.9°
Maximum altitude 12:14:13 24° 90° (E) 1,061 4.4 -15.9°
Drops below altitude 10° 12:17:13 10° 35° (NE) 1,685 6.0 -16.3°
Sets 12:19:35 0° 22° (NNE) 2,567 7.2 -16.5°
